QPF
0.01 0.01 0.01 0.01 0.00 0.00 0.01 0.00 0.00 0.00 0.00 0.00 0.00 0.00 0.00 0.00 0.00 0.00 0.00 0.00 0.00 0.00 0.00 0.00 0.00 0.00 0.00 0.00 0.00 0.00 0.00 0.00 0.00 0.00 0.00 0.00 0.00 0.00 0.00 0.00 0.00 0.00 0.00 0.00 0.00 0.00 0.00
0.01 0.00 0.00 0.00 0.00 0.00 0.00 0.00 0.00 0.00 0.00 0.00 0.00 0.00 0.00 0.00 0.00 0.00 0.00 0.00 0.00 0.00 0.00 0.00 0.00 0.00 0.00 0.00 0.00 0.00 0.00 0.00 0.00 0.00 0.00 0.00 0.00 0.00 0.00 0.00 0.00 0.00 0.00 0.00 0.00 0.00 0.00
0.00 0.00 0.00 0.00 0.00 0.00 0.00 0.00 0.00 0.00 0.00 0.00 0.00 0.00 0.00 0.00 0.00 0.00 0.00 0.00 0.00 0.00 0.00 0.00 0.00 0.00 0.00 0.00 0.00 0.00 0.00 0.00 0.00 0.00 0.00 0.00 0.00 0.00 0.00 0.00 0.00 0.00 0.00 0.00 0.00 0.00 0.00
0.00 0.00 0.00 0.00 0.00 0.00 0.00 0.00 0.00 0.00 0.00 0.00 0.00 0.00 0.00 0.00 0.00 0.00 0.00 0.00 0.00 0.00 0.00 0.00 0.00 0.00 0.00 0.00 0.00 0.00 0.00 0.00 0.00 0.00 0.00 0.00 0.00 0.00 0.00 0.00 0.00 0.00 0.00 0.00 0.00 0.00 0.00
0.00 0.00 0.00 0.00 0.00 0.00 0.00 0.00 0.00 0.00 0.00 0.00 0.00 0.00 0.00 0.00 0.00 0.00 0.00 0.00 0.00 0.00 0.00 0.00 0.00 0.00 0.00 0.00 0.00 0.00 0.00 0.00 0.00 0.00 0.00 0.00 0.00 0.00 0.00 0.00 0.00 0.00 0.00 0.00 0.00 0.00 0.00
0.01 0.00 0.00 0.00 0.00 0.00 0.00 0.00 0.00 0.00 0.00 0.00 0.00 0.00 0.00 0.00 0.00 0.00 0.00 0.00 0.00 0.00 0.00 0.00 0.00 0.00 0.00 0.00 0.00 0.00 0.00 0.00 0.00 0.00 0.00 0.00 0.00 0.00 0.00 0.00 0.00 0.00 0.00 0.00 0.00 0.00 0.00
0.01 0.00 0.00 0.00 0.00 0.00 0.00 0.00 0.00 0.00 0.00 0.00 0.00 0.00 0.00 0.00 0.00 0.00 0.00 0.00 0.00 0.00 0.00 0.00 0.00 0.00 0.00 0.00 0.00 0.00 0.00 0.00 0.00 0.00 0.00 0.00 0.00 0.00 0.00 0.00 0.00 0.00 0.00 0.00 0.00 0.00 0.00
0.01 0.01 0.00 0.00 0.00 0.00 0.00 0.00 0.00 0.00 0.00 0.00 0.00 0.00 0.00 0.00 0.00 0.00 0.00 0.00 0.00 0.00 0.00 0.00 0.00 0.00 0.00 0.00 0.00 0.00 0.00 0.00 0.00 0.00 0.00 0.00 0.00 0.00 0.00 0.00 0.00 0.00 0.00 0.00 0.00 0.00 0.00
0.00 0.01 0.00 0.00 0.00 0.00 0.00 0.00 0.00 0.00 0.00 0.00 0.00 0.00 0.00 0.00 0.00 0.00 0.00 0.00 0.00 0.00 0.00 0.00 0.00 0.00 0.00 0.00 0.00 0.00 0.00 0.00 0.00 0.00 0.00 0.00 0.00 0.00 0.00 0.00 0.00 0.00 0.00 0.00 0.00 0.00 0.00
0.00 0.00 0.00 0.00 0.00 0.00 0.00 0.00 0.00 0.00 0.00 0.00 0.00 0.00 0.00 0.00 0.00 0.00 0.00 0.00 0.00 0.00 0.00 0.00 0.00 0.00 0.00 0.00 0.00 0.00 0.00 0.00 0.00 0.00 0.00 0.00 0.00 0.00 0.00 0.00 0.00 0.00 0.00 0.00 0.00 0.00 0.00
0.00 0.00 0.00 0.00 0.00 0.00 0.00 0.00 0.00 0.00 0.00 0.00 0.00 0.00 0.00 0.00 0.00 0.00 0.00 0.00 0.00 0.00 0.00 0.00 0.00 0.00 0.00 0.00 0.00 0.00 0.00 0.00 0.00 0.00 0.00 0.00 0.00 0.00 0.00 0.00 0.00 0.00 0.00 0.00 0.00 0.00 0.00
0.00 0.00 0.00 0.00 0.00 0.00 0.00 0.00 0.00 0.00 0.00 0.00 0.00 0.00 0.00 0.00 0.00 0.00 0.00 0.00 0.00 0.00 0.00 0.00 0.00 0.00 0.00 0.00 0.00 0.00 0.00 0.00 0.00 0.00 0.00 0.00 0.00 0.00 0.00 0.00 0.00 0.00 0.00 0.00 0.00 0.00 0.00
0.00 0.00 0.00 0.00 0.00 0.00 0.00 0.00 0.00 0.00 0.00 0.00 0.00 0.00 0.00 0.00 0.00 0.00 0.00 0.00 0.00 0.00 0.00 0.00 0.00 0.00 0.00 0.00 0.00 0.00 0.00 0.00 0.00 0.00 0.00 0.00 0.00 0.00 0.00 0.00 0.00 0.00 0.00 0.00 0.00 0.00 0.00
0.01 0.00 0.00 0.00 0.00 0.00 0.00 0.00 0.00 0.00 0.00 0.00 0.00 0.00 0.00 0.00 0.00 0.00 0.00 0.00 0.00 0.00 0.00 0.00 0.00 0.00 0.00 0.00 0.00 0.00 0.00 0.00 0.00 0.00 0.00 0.00 0.00 0.00 0.00 0.00 0.00 0.00 0.00 0.00 0.00 0.00 0.00
0.01 0.01 0.01 0.00 0.00 0.00 0.00 0.00 0.01 0.00 0.00 0.00 0.00 0.00 0.00 0.00 0.00 0.00 0.00 0.00 0.00 0.00 0.00 0.00 0.00 0.00 0.00 0.00 0.00 0.00 0.00 0.00 0.00 0.00 0.00 0.00 0.00 0.00 0.00 0.00 0.00 0.00 0.00 0.00 0.00 0.00 0.00
0.02 0.00 0.01 0.01 0.00 0.00 0.00 0.00 0.00 0.01 0.00 0.00 0.00 0.00 0.00 0.00 0.00 0.00 0.00 0.00 0.00 0.00 0.00 0.00 0.00 0.00 0.00 0.00 0.00 0.00 0.00 0.00 0.00 0.00 0.00 0.00 0.00 0.00 0.00 0.00 0.00 0.00 0.00 0.00 0.00 0.00 0.00
0.02 0.02 0.01 0.01 0.01 0.01 0.01 0.00 0.01 0.00 0.01 0.00 0.00 0.00 0.00 0.00 0.00 0.00 0.00 0.00 0.00 0.00 0.00 0.00 0.00 0.00 0.00 0.00 0.00 0.00 0.00 0.00 0.00 0.00 0.00 0.00 0.00 0.00 0.00 0.00 0.00 0.00 0.00 0.00 0.00 0.00 0.00
0.01 0.02 0.01 0.00 0.01 0.01 0.01 0.00 0.01 0.01 0.01 0.00 0.00 0.00 0.00 0.00 0.00 0.00 0.00 0.00 0.00 0.00 0.00 0.00 0.00 0.00 0.00 0.00 0.00 0.00 0.00 0.00 0.00 0.00 0.00 0.00 0.00 0.00 0.00 0.00 0.00 0.00 0.00 0.00 0.00 0.00 0.00
0.02 0.01 0.01 0.00 0.01 0.01 0.01 0.01 0.01 0.02 0.02 0.00 0.00 0.00 0.00 0.00 0.00 0.00 0.00 0.00 0.00 0.00 0.00 0.00 0.00 0.00 0.00 0.00 0.00 0.00 0.00 0.00 0.00 0.00 0.00 0.00 0.00 0.00 0.00 0.00 0.00 0.00 0.00 0.00 0.00 0.00 0.00
0.02 0.02 0.02 0.01 0.01 0.02 0.01 0.01 0.01 0.02 0.04 0.00 0.00 0.00 0.00 0.00 0.00 0.00 0.00 0.00 0.00 0.00 0.00 0.00 0.00 0.00 0.00 0.00 0.00 0.00 0.00 0.00 0.00 0.00 0.00 0.00 0.00 0.00 0.00 0.00 0.00 0.00 0.00 0.00 0.00 0.00 0.00
0.01 0.02 0.02 0.01 0.01 0.01 0.02 0.02 0.02 0.02 0.05 0.00 0.00 0.00 0.00 0.00 0.00 0.00 0.00 0.00 0.00 0.00 0.00 0.00 0.00 0.00 0.00 0.00 0.00 0.00 0.00 0.00 0.00 0.00 0.00 0.00 0.00 0.00 0.00 0.00 0.00 0.00 0.00 0.00 0.00 0.00 0.00
0.01 0.01 0.02 0.02 0.02 0.02 0.02 0.01 0.02 0.01 0.04 0.01 0.00 0.00 0.00 0.00 0.00 0.00 0.00 0.00 0.00 0.00 0.00 0.00 0.00 0.00 0.00 0.00 0.00 0.00 0.00 0.00 0.00 0.00 0.00 0.00 0.00 0.00 0.00 0.00 0.00 0.00 0.00 0.00 0.00 0.00 0.00
0.02 0.02 0.02 0.01 0.02 0.03 0.02 0.01 0.01 0.01 0.01 0.00 0.00 0.00 0.00 0.00 0.00 0.00 0.00 0.00 0.00 0.00 0.00 0.00 0.00 0.00 0.00 0.00 0.00 0.00 0.00 0.00 0.00 0.00 0.00 0.00 0.00 0.00 0.00 0.00 0.00 0.00 0.00 0.00 0.00 0.00 0.00
0.02 0.02 0.02 0.01 0.01 0.03 0.04 0.02 0.01 0.00 0.00 0.00 0.00 0.00 0.00 0.00 0.00 0.00 0.00 0.00 0.00 0.00 0.00 0.00 0.00 0.00 0.00 0.00 0.00 0.00 0.00 0.00 0.00 0.00 0.00 0.00 0.00 0.00 0.00 0.00 0.00 0.00 0.00 0.00 0.00 0.00 0.00
0.01 0.00 0.01 0.01 0.01 0.02 0.03 0.03 0.02 0.00 0.01 0.00 0.00 0.00 0.00 0.00 0.00 0.00 0.00 0.00 0.00 0.00 0.00 0.00 0.00 0.00 0.00 0.00 0.00 0.00 0.00 0.00 0.00 0.00 0.00 0.00 0.00 0.00 0.00 0.00 0.00 0.00 0.00 0.00 0.00 0.00 0.00
0.01 0.00 0.00 0.00 0.01 0.01 0.01 0.02 0.03 0.01 0.02 0.01 0.00 0.00 0.00 0.00 0.00 0.00 0.00 0.00 0.00 0.00 0.00 0.00 0.00 0.00 0.00 0.00 0.00 0.00 0.00 0.00 0.00 0.00 0.00 0.00 0.00 0.00 0.00 0.01 0.00 0.00 0.00 0.00 0.00 0.00 0.00
0.01 0.00 0.00 0.00 0.00 0.00 0.00 0.00 0.01 0.01 0.02 0.03 0.00 0.00 0.01 0.00 0.00 0.00 0.00 0.00 0.00 0.00 0.00 0.00 0.00 0.00 0.00 0.00 0.00 0.00 0.00 0.00 0.00 0.00 0.00 0.00 0.00 0.00 0.00 0.01 0.00 0.00 0.00 0.00 0.00 0.00 0.00
0.01 0.01 0.00 0.00 0.00 0.00 0.00 0.00 0.01 0.01 0.02 0.03 0.00 0.00 0.00 0.00 0.00 0.00 0.00 0.00 0.00 0.00 0.00 0.00 0.00 0.00 0.00 0.00 0.00 0.00 0.00 0.00 0.00 0.00 0.00 0.00 0.00 0.00 0.00 0.00 0.00 0.00 0.00 0.00 0.00 0.00 0.00
0.01 0.01 0.01 0.00 0.00 0.00 0.00 0.00 0.01 0.01 0.02 0.03 0.00 0.00 0.00 0.00 0.00 0.00 0.00 0.00 0.00 0.00 0.00 0.00 0.00 0.00 0.00 0.00 0.00 0.00 0.00 0.00 0.00 0.00 0.00 0.00 0.00 0.00 0.00 0.00 0.00 0.00 0.00 0.00 0.00 0.00 0.00
MSLP
1018.05 1018.46 1018.63 1018.85 1018.72 1018.98 1019.13 1019.42 1019.54 1019.62 1019.76 1020.11 1020.24 1020.33 1020.45 1020.42 1020.34 1020.38 1020.41 1020.33 1020.17 1019.99 1019.51 1018.92 1018.46 1017.60 1016.97 1016.47 1015.42 1014.59 1014.53 1014.54 1014.52 1014.47 1014.68 1014.89 1015.35 1016.03 1016.55 1016.72 1016.59 1016.74 1016.56 1016.22 1015.69 1015.32 1015.26
1017.96 1018.19 1018.42 1018.52 1018.49 1018.82 1018.79 1018.89 1019.04 1019.27 1019.36 1019.77 1019.92 1020.10 1020.28 1020.19 1020.21 1020.37 1020.38 1020.46 1020.17 1020.08 1019.83 1019.22 1018.77 1017.79 1017.79 1016.58 1014.93 1014.76 1014.62 1014.53 1014.58 1014.70 1014.85 1014.95 1015.49 1015.85 1016.54 1016.90 1017.07 1017.02 1016.71 1016.23 1015.40 1015.12 1015.05
1017.66 1017.91 1018.17 1018.43 1018.35 1018.45 1018.68 1018.68 1018.67 1018.48 1018.92 1019.13 1019.49 1019.63 1019.93 1019.93 1020.15 1020.08 1020.26 1020.39 1020.11 1019.99 1019.89 1019.57 1019.09 1018.37 1017.99 1016.01 1014.97 1015.04 1014.77 1014.75 1014.76 1014.82 1014.92 1015.02 1015.29 1015.74 1016.40 1016.86 1016.96 1016.81 1016.71 1015.93 1015.30 1015.20 1015.14
1017.50 1017.49 1017.91 1018.05 1018.08 1018.46 1018.19 1017.83 1018.25 1018.23 1018.30 1018.72 1018.96 1019.10 1019.50 1019.60 1019.90 1019.90 1020.10 1020.07 1020.07 1019.86 1019.68 1019.57 1019.22 1018.90 1017.01 1014.93 1014.94 1015.00 1014.98 1014.78 1014.73 1014.82 1014.81 1015.02 1015.32 1015.98 1016.47 1016.88 1017.06 1017.11 1017.21 1016.82 1015.71 1015.34 1015.13
1017.45 1017.46 1017.49 1017.97 1017.70 1018.33 1018.15 1017.78 1017.28 1017.35 1018.23 1018.32 1018.45 1018.65 1018.94 1019.29 1019.62 1019.84 1019.88 1019.87 1019.78 1019.71 1019.66 1019.44 1019.20 1019.04 1016.55 1014.76 1014.72 1014.42 1014.70 1014.81 1014.80 1015.00 1015.02 1015.24 1015.57 1016.81 1017.22 1017.51 1017.86 1018.02 1017.83 1017.44 1016.56 1015.76 1015.64
1016.93 1017.30 1017.18 1017.88 1018.19 1017.85 1017.73 1017.96 1017.27 1017.01 1017.92 1017.71 1018.20 1018.42 1018.54 1018.90 1019.43 1019.69 1019.88 1019.56 1019.22 1019.64 1019.54 1019.32 1018.91 1019.03 1016.40 1014.86 1014.28 1014.34 1014.51 1014.78 1014.87 1015.09 1015.68 1016.10 1016.82 1017.39 1018.01 1018.19 1018.57 1018.47 1018.30 1017.82 1017.56 1016.40 1016.19
1016.67 1016.86 1017.19 1017.53 1017.72 1017.71 1017.48 1017.51 1017.42 1017.22 1017.35 1017.61 1017.82 1018.13 1018.22 1018.60 1019.16 1019.71 1019.83 1019.27 1019.75 1019.91 1019.72 1018.32 1017.64 1016.92 1015.68 1014.75 1014.28 1014.32 1014.50 1014.92 1015.30 1015.67 1016.28 1016.98 1017.71 1017.83 1017.79 1017.97 1018.01 1018.30 1018.36 1018.17 1017.46 1016.62 1017.00
1016.27 1016.42 1016.75 1017.02 1017.51 1017.76 1017.47 1017.36 1017.55 1017.47 1017.38 1017.30 1017.77 1017.89 1018.05 1018.57 1019.20 1019.75 1019.68 1019.60 1019.29 1019.97 1019.11 1017.58 1016.89 1016.41 1015.50 1015.22 1015.28 1014.74 1014.69 1015.21 1015.58 1016.21 1016.73 1017.52 1017.32 1017.04 1017.43 1017.56 1017.86 1018.01 1018.07 1017.91 1017.09 1016.30 1017.09
1016.40 1016.34 1016.65 1016.65 1017.11 1017.55 1017.38 1017.52 1017.55 1017.50 1017.46 1017.36 1017.39 1017.87 1018.02 1018.69 1019.39 1019.77 1019.53 1019.45 1019.23 1019.37 1019.45 1017.26 1016.47 1015.72 1015.20 1015.18 1015.32 1014.81 1014.89 1015.31 1015.90 1016.54 1017.05 1017.47 1016.77 1016.80 1017.20 1017.25 1017.60 1017.64 1017.49 1017.26 1016.95 1016.66 1016.98
1015.83 1016.31 1016.43 1016.74 1016.80 1017.09 1017.34 1017.78 1017.63 1017.59 1017.63 1017.37 1017.48 1017.75 1018.27 1018.79 1019.60 1019.61 1019.42 1018.93 1019.24 1019.41 1019.42 1017.07 1016.01 1014.60 1014.47 1014.77 1014.98 1014.52 1014.54 1015.24 1016.04 1016.46 1017.07 1017.25 1016.73 1016.75 1017.03 1017.20 1017.20 1017.17 1016.36 1016.65 1016.89 1017.39 1017.99
1015.44 1015.92 1016.29 1016.51 1016.58 1017.13 1016.93 1017.45 1017.78 1017.94 1017.54 1017.52 1017.52 1017.69 1018.17 1018.54 1018.68 1019.33 1019.26 1019.21 1019.33 1019.44 1019.18 1016.05 1015.03 1014.01 1014.27 1014.74 1014.61 1014.69 1014.70 1015.15 1015.88 1016.44 1016.98 1017.02 1016.58 1016.67 1016.83 1016.54 1016.47 1016.27 1016.02 1016.51 1016.74 1017.40 1018.07
1015.05 1015.35 1015.63 1015.92 1016.33 1016.87 1016.89 1017.20 1017.46 1017.62 1017.63 1017.35 1017.49 1017.91 1018.12 1018.70 1018.88 1019.09 1019.11 1018.86 1019.56 1020.30 1018.00 1015.54 1014.64 1014.40 1014.57 1014.66 1014.78 1014.98 1015.04 1015.38 1016.04 1016.68 1017.02 1016.98 1016.53 1016.58 1016.33 1015.88 1016.04 1015.95 1016.39 1016.87 1017.59 1018.13 1018.59
1014.47 1014.88 1015.29 1015.58 1015.91 1016.34 1016.76 1016.91 1017.04 1017.32 1017.43 1017.37 1017.48 1017.95 1018.16 1018.27 1019.04 1019.00 1019.22 1019.49 1020.54 1019.80 1017.12 1015.96 1015.15 1014.99 1015.11 1015.17 1015.22 1015.34 1015.85 1016.10 1016.62 1017.25 1017.59 1017.43 1016.95 1016.33 1016.07 1016.02 1015.81 1016.23 1017.05 1018.02 1018.54 1019.10 1018.68
1014.11 1014.44 1014.77 1015.38 1015.62 1015.95 1016.36 1016.86 1016.90 1017.16 1017.32 1017.55 1017.68 1017.99 1018.52 1018.95 1019.04 1019.07 1019.28 1020.22 1020.19 1018.41 1017.52 1016.32 1015.64 1015.58 1015.73 1015.77 1015.90 1016.10 1016.50 1016.86 1016.78 1017.31 1018.18 1018.15 1017.24 1016.42 1016.13 1016.24 1016.40 1016.44 1017.26 1018.48 1018.92 1019.35 1019.16
1013.41 1013.94 1014.39 1014.79 1015.40 1015.63 1016.13 1016.57 1016.72 1017.05 1017.30 1017.67 1018.02 1018.45 1018.85 1019.14 1018.96 1019.26 1019.65 1019.97 1019.34 1018.57 1017.58 1016.81 1016.42 1016.35 1016.64 1016.54 1016.74 1016.81 1017.01 1017.15 1017.00 1017.12 1017.94 1018.19 1017.85 1016.65 1016.36 1016.27 1016.39 1016.49 1017.14 1017.87 1018.98 1019.29 1019.64
1012.73 1013.16 1013.82 1014.39 1014.98 1015.49 1015.78 1016.32 1016.51 1017.05 1017.41 1017.75 1018.14 1018.61 1019.19 1019.20 1018.97 1019.35 1020.10 1019.61 1019.23 1018.48 1017.90 1017.22 1017.03 1017.10 1017.33 1017.46 1017.48 1017.54 1017.37 1017.22 1017.11 1017.30 1017.45 1018.07 1018.34 1017.42 1016.85 1016.44 1016.29 1016.48 1017.13 1018.02 1019.55 1019.97 1019.88
1012.17 1012.65 1012.98 1013.73 1014.62 1015.13 1015.55 1016.23 1016.36 1016.94 1017.40 1017.70 1018.53 1019.21 1019.53 1019.29 1019.25 1019.82 1019.82 1019.53 1019.29 1018.68 1018.24 1017.85 1017.48 1017.70 1017.95 1018.15 1018.15 1018.30 1017.99 1017.50 1017.22 1017.44 1017.68 1018.32 1019.00 1018.45 1017.75 1017.34 1016.99 1017.03 1017.47 1018.41 1019.33 1020.22 1020.40
1011.59 1012.02 1012.75 1013.20 1014.10 1014.65 1015.23 1015.72 1016.27 1016.89 1017.42 1017.71 1018.70 1019.96 1019.70 1019.29 1020.17 1019.64 1019.68 1019.69 1019.48 1019.14 1018.48 1018.07 1017.93 1018.10 1018.45 1018.79 1019.07 1019.09 1018.55 1017.81 1017.43 1017.50 1018.06 1018.40 1018.94 1018.97 1018.27 1017.48 1017.47 1017.58 1017.97 1018.88 1019.72 1020.42 1020.81
1010.90 1011.52 1012.24 1012.91 1013.57 1014.13 1014.72 1015.42 1015.96 1016.45 1017.08 1018.07 1019.10 1019.76 1019.83 1019.60 1019.91 1020.27 1020.27 1020.06 1019.81 1019.53 1018.97 1018.67 1018.58 1018.58 1018.86 1019.30 1019.62 1019.39 1018.87 1018.07 1017.93 1018.05 1018.34 1018.69 1019.30 1019.36 1018.61 1018.63 1018.41 1018.50 1018.90 1019.54 1020.16 1020.61 1020.70
1010.27 1011.08 1011.79 1012.47 1013.14 1013.76 1014.29 1015.00 1015.61 1016.14 1016.83 1017.83 1019.15 1019.99 1020.15 1020.20 1020.09 1020.05 1020.38 1020.38 1020.03 1019.70 1019.43 1019.17 1019.11 1019.05 1019.40 1019.68 1019.77 1019.59 1019.26 1018.61 1018.33 1018.31 1018.61 1019.05 1019.74 1020.06 1019.75 1019.67 1019.55 1019.47 1019.35 1019.58 1019.80 1020.16 1019.77
1009.57 1010.38 1011.14 1012.01 1012.66 1013.27 1013.96 1014.59 1015.32 1015.85 1016.60 1017.58 1018.80 1019.21 1018.70 1019.56 1020.05 1020.19 1020.18 1020.18 1020.03 1019.96 1019.80 1019.49 1019.48 1019.45 1019.71 1020.22 1020.28 1019.78 1019.51 1019.29 1018.81 1018.68 1018.98 1019.57 1020.23 1020.49 1020.19 1019.98 1019.89 1019.41 1019.29 1019.39 1019.42 1018.88 1018.82
1009.32 1010.10 1010.82 1011.52 1012.16 1013.00 1013.61 1014.14 1015.03 1015.42 1016.53 1017.49 1018.47 1019.08 1019.18 1019.36 1019.29 1020.03 1020.12 1019.85 1020.20 1020.23 1019.95 1019.69 1019.72 1019.61 1019.83 1020.23 1019.93 1019.84 1019.84 1019.78 1019.48 1019.39 1019.52 1019.93 1020.44 1020.81 1020.57 1020.28 1019.92 1019.11 1018.86 1018.39 1017.79 1017.54 1017.33
1008.59 1009.74 1010.49 1010.91 1011.65 1012.54 1013.39 1014.09 1014.59 1015.15 1016.11 1016.36 1017.66 1018.25 1018.42 1019.19 1019.35 1019.70 1019.34 1019.56 1020.00 1020.13 1019.97 1019.61 1019.70 1020.01 1020.13 1019.91 1019.84 1019.53 1019.41 1019.59 1019.63 1019.76 1020.08 1020.48 1020.80 1021.17 1020.08 1020.05 1019.65 1018.75 1017.45 1016.79 1016.55 1016.16 1016.32
1007.94 1008.99 1009.86 1010.44 1011.33 1012.16 1012.92 1013.76 1014.45 1014.94 1015.52 1016.55 1016.93 1017.70 1018.44 1019.24 1019.23 1018.99 1019.26 1019.50 1019.98 1020.16 1020.01 1019.88 1019.95 1020.20 1020.16 1019.82 1019.52 1019.35 1019.31 1019.22 1019.25 1019.33 1019.38 1019.88 1020.60 1020.98 1020.42 1020.18 1019.01 1017.33 1016.45 1016.36 1016.19 1015.65 1015.75
1007.51 1008.44 1009.55 1010.32 1011.20 1011.89 1012.74 1013.49 1014.21 1014.86 1015.45 1016.41 1017.15 1017.46 1018.05 1018.64 1018.85 1019.05 1019.41 1019.70 1020.07 1020.30 1020.40 1020.26 1019.96 1019.86 1019.93 1020.41 1020.25 1019.91 1019.65 1019.43 1018.81 1018.53 1018.69 1019.17 1020.03 1020.47 1020.51 1019.75 1018.05 1017.21 1015.99 1016.05 1016.01 1015.26 1015.28
1007.31 1008.26 1009.05 1009.76 1010.95 1011.89 1012.54 1013.34 1014.18 1014.76 1015.49 1016.33 1016.78 1017.43 1018.01 1018.27 1018.05 1018.50 1019.23 1019.49 1020.05 1020.37 1020.66 1020.19 1019.72 1019.46 1020.16 1020.68 1021.07 1020.58 1020.01 1019.25 1018.85 1018.34 1018.02 1018.95 1019.54 1020.37 1020.18 1019.34 1017.74 1016.36 1016.03 1016.06 1015.97 1016.02 1015.86
1007.31 1008.07 1008.90 1009.53 1010.33 1011.46 1012.19 1013.00 1013.77 1014.31 1015.03 1016.15 1016.86 1017.21 1018.22 1018.17 1017.77 1017.77 1018.20 1018.67 1019.33 1019.85 1020.13 1019.89 1019.52 1019.85 1020.06 1020.87 1021.23 1020.80 1020.19 1019.30 1018.96 1018.50 1018.57 1018.98 1019.41 1019.60 1019.29 1018.65 1017.03 1015.87 1015.99 1016.27 1016.91 1016.97 1016.61
1006.92 1007.81 1008.66 1009.36 1009.96 1010.91 1011.82 1012.65 1013.37 1014.07 1014.79 1015.76 1016.44 1016.91 1017.84 1018.19 1017.89 1017.58 1017.52 1017.84 1018.46 1018.96 1019.54 1019.45 1019.87 1019.89 1020.49 1020.83 1020.89 1020.52 1020.25 1019.33 1018.79 1018.15 1017.88 1018.10 1018.56 1018.72 1018.37 1017.89 1017.09 1016.43 1016.75 1017.12 1017.07 1017.08 1017.43
1006.59 1007.61 1008.20 1009.03 1009.89 1010.63 1011.40 1012.19 1012.93 1013.71 1014.45 1015.35 1016.13 1016.54 1017.48 1018.11 1018.25 1017.83 1017.76 1017.70 1017.46 1017.29 1018.25 1018.98 1019.30 1019.41 1019.89 1020.19 1020.42 1020.11 1019.92 1019.42 1018.79 1018.35 1017.27 1017.33 1016.84 1017.18 1017.63 1016.90 1016.57 1016.62 1017.02 1017.29 1017.44 1017.68 1018.04
Thickness
5614 5611 5613 5613 5619 5617 5617 5616 5616 5618 5617 5616 5617 5617 5617 5619 5620 5619 5618 5620 5621 5625 5632 5636 5639 5646 5651 5649 5654 5668 5668 5668 5669 5669 5664 5662 5655 5649 5644 5645 5647 5646 5647 5648 5651 5650 5650
5604 5604 5604 5607 5610 5609 5610 5611 5611 5610 5612 5609 5611 5610 5610 5614 5615 5612 5613 5612 5615 5618 5622 5628 5631 5641 5638 5637 5658 5661 5663 5665 5663 5661 5658 5658 5653 5652 5643 5640 5638 5638 5640 5639 5647 5651 5651
5596 5597 5597 5597 5602 5602 5601 5604 5606 5609 5606 5606 5606 5607 5605 5608 5608 5609 5606 5605 5609 5612 5615 5620 5624 5631 5630 5640 5654 5654 5656 5656 5657 5656 5652 5654 5652 5646 5641 5634 5636 5637 5634 5637 5650 5645 5646
5586 5589 5589 5591 5593 5594 5598 5604 5602 5603 5602 5601 5602 5605 5602 5602 5602 5603 5601 5602 5603 5606 5610 5612 5617 5620 5628 5652 5650 5649 5649 5650 5651 5650 5650 5650 5647 5638 5634 5632 5626 5626 5623 5619 5638 5637 5643
5575 5577 5580 5578 5585 5583 5588 5594 5602 5602 5596 5597 5598 5600 5599 5598 5595 5595 5597 5598 5599 5600 5603 5607 5612 5610 5623 5646 5642 5648 5644 5640 5643 5640 5641 5641 5637 5620 5618 5612 5608 5604 5606 5612 5614 5628 5633
5565 5566 5570 5567 5568 5576 5580 5581 5590 5595 5588 5594 5590 5592 5594 5594 5589 5587 5588 5594 5597 5594 5594 5598 5604 5601 5621 5629 5638 5640 5639 5636 5632 5630 5624 5620 5609 5605 5596 5595 5591 5599 5598 5600 5596 5609 5610
5553 5555 5557 5557 5559 5563 5569 5573 5576 5582 5584 5582 5583 5583 5587 5586 5583 5580 5580 5586 5586 5585 5586 5601 5607 5610 5618 5624 5630 5630 5630 5623 5622 5617 5605 5602 5595 5591 5598 5596 5598 5592 5586 5582 5589 5598 5598
5541 5544 5547 5547 5547 5548 5556 5561 5563 5568 5572 5575 5574 5575 5576 5574 5571 5570 5572 5576 5580 5574 5578 5594 5600 5602 5609 5612 5604 5616 5620 5609 5608 5598 5596 5585 5587 5597 5594 5590 5584 5581 5576 5574 5585 5591 5586
5520 5527 5530 5535 5535 5536 5540 5544 5547 5551 5557 5560 5564 5562 5565 5562 5559 5559 5564 5566 5567 5568 5561 5587 5591 5596 5601 5603 5597 5603 5608 5602 5595 5587 5583 5578 5590 5590 5585 5581 5575 5572 5570 5572 5574 5582 5578
5509 5511 5515 5517 5521 5523 5525 5526 5532 5536 5539 5546 5550 5551 5551 5550 5546 5547 5551 5557 5558 5559 5540 5573 5583 5593 5600 5598 5594 5603 5602 5595 5585 5578 5575 5572 5580 5581 5574 5568 5569 5562 5575 5571 5568 5560 5545
5494 5496 5499 5503 5507 5507 5515 5515 5516 5518 5527 5530 5534 5538 5539 5539 5543 5542 5546 5546 5548 5549 5526 5577 5577 5595 5592 5588 5590 5588 5592 5585 5571 5571 5570 5567 5571 5566 5560 5562 5566 5563 5572 5565 5562 5551 5546
5478 5483 5488 5491 5493 5495 5500 5503 5505 5507 5511 5518 5521 5524 5528 5528 5531 5531 5534 5538 5536 5511 5518 5567 5574 5574 5575 5579 5578 5577 5577 5575 5569 5562 5559 5557 5564 5561 5556 5561 5556 5559 5556 5549 5533 5527 5511
5464 5469 5474 5478 5482 5484 5486 5490 5494 5496 5500 5506 5510 5510 5515 5520 5519 5520 5521 5522 5502 5482 5551 5558 5561 5564 5561 5560 5562 5562 5558 5555 5547 5544 5542 5544 5547 5552 5553 5549 5550 5547 5532 5506 5510 5497 5522
5451 5456 5461 5464 5469 5474 5477 5477 5483 5485 5490 5493 5497 5500 5502 5503 5505 5508 5510 5507 5487 5528 5531 5550 5554 5550 5549 5549 5548 5546 5542 5537 5544 5539 5523 5524 5528 5547 5548 5542 5535 5534 5524 5502 5506 5485 5504
5439 5445 5448 5454 5456 5461 5464 5467 5472 5474 5477 5479 5482 5485 5488 5490 5493 5493 5494 5495 5499 5511 5529 5535 5539 5535 5531 5535 5532 5535 5531 5528 5535 5534 5522 5512 5518 5537 5537 5537 5532 5528 5515 5521 5505 5507 5467
5426 5433 5436 5440 5445 5447 5452 5455 5461 5461 5463 5465 5468 5470 5473 5476 5481 5481 5476 5497 5496 5507 5514 5522 5522 5521 5517 5521 5521 5523 5522 5529 5529 5527 5525 5521 5495 5522 5526 5530 5530 5523 5518 5490 5469 5489 5501
5414 5418 5427 5429 5430 5434 5438 5440 5446 5448 5449 5451 5450 5448 5456 5463 5465 5461 5474 5485 5490 5497 5505 5507 5510 5509 5509 5503 5511 5510 5515 5518 5519 5517 5515 5509 5479 5504 5511 5514 5510 5511 5504 5498 5492 5489 5476
5401 5407 5411 5419 5419 5422 5425 5428 5432 5433 5433 5437 5434 5425 5442 5449 5443 5449 5464 5466 5479 5482 5491 5498 5501 5502 5498 5490 5497 5474 5500 5508 5510 5510 5504 5501 5478 5478 5498 5509 5506 5504 5501 5488 5462 5479 5476
5389 5395 5399 5404 5408 5413 5417 5419 5420 5422 5423 5420 5413 5420 5426 5432 5438 5444 5445 5455 5464 5470 5476 5482 5485 5491 5480 5474 5467 5480 5490 5501 5498 5498 5492 5491 5472 5463 5491 5494 5492 5490 5486 5474 5466 5452 5450
5378 5382 5387 5392 5397 5400 5405 5408 5410 5412 5413 5411 5404 5408 5411 5416 5423 5432 5435 5439 5447 5460 5460 5466 5471 5477 5475 5473 5472 5468 5479 5490 5490 5489 5488 5480 5467 5474 5463 5458 5468 5467 5481 5477 5472 5450 5446
5366 5370 5377 5380 5385 5390 5393 5396 5399 5401 5401 5400 5391 5398 5419 5418 5419 5420 5428 5435 5440 5445 5450 5453 5459 5461 5463 5450 5459 5462 5462 5468 5479 5482 5478 5469 5448 5453 5458 5460 5460 5466 5459 5460 5463 5469 5459
5354 5358 5364 5369 5375 5378 5383 5388 5386 5392 5388 5390 5386 5392 5401 5405 5423 5419 5420 5422 5426 5434 5440 5445 5446 5453 5446 5442 5452 5457 5456 5456 5458 5464 5459 5451 5424 5421 5422 5448 5445 5450 5447 5456 5468 5469 5467
5346 5349 5349 5358 5364 5367 5370 5373 5378 5381 5381 5390 5388 5390 5396 5399 5403 5410 5423 5419 5422 5429 5432 5439 5440 5435 5436 5439 5441 5446 5449 5451 5452 5455 5443 5440 5431 5414 5448 5445 5440 5441 5440 5457 5464 5470 5473
5341 5341 5341 5347 5352 5356 5360 5363 5367 5371 5377 5377 5385 5384 5383 5379 5395 5411 5413 5418 5413 5415 5421 5426 5426 5423 5430 5434 5440 5442 5443 5441 5441 5443 5445 5433 5425 5420 5430 5427 5418 5443 5463 5463 5462 5472 5470
5330 5332 5332 5333 5338 5344 5348 5352 5357 5362 5366 5368 5369 5377 5382 5375 5387 5394 5399 5402 5404 5404 5407 5412 5418 5422 5420 5422 5422 5429 5430 5439 5444 5442 5440 5435 5419 5415 5418 5423 5439 5449 5462 5455 5458 5472 5469
5318 5319 5321 5325 5326 5329 5336 5341 5345 5351 5355 5357 5363 5365 5370 5373 5382 5391 5387 5392 5386 5385 5391 5400 5410 5414 5413 5404 5398 5419 5423 5435 5439 5443 5442 5428 5421 5408 5401 5414 5420 5445 5448 5448 5451 5452 5450
5304 5308 5311 5316 5320 5320 5326 5331 5336 5343 5347 5348 5353 5357 5354 5364 5375 5383 5380 5387 5387 5384 5387 5394 5408 5404 5406 5398 5399 5413 5418 5430 5423 5433 5432 5417 5406 5403 5409 5417 5431 5447 5439 5437 5432 5441 5436
5296 5298 5302 5308 5313 5315 5318 5323 5327 5333 5337 5339 5346 5348 5347 5349 5363 5377 5383 5383 5382 5381 5382 5392 5387 5391 5390 5400 5390 5397 5398 5411 5415 5430 5429 5422 5413 5409 5418 5421 5426 5426 5423 5427 5426 5416 5420
5286 5287 5293 5297 5301 5306 5310 5316 5321 5324 5328 5330 5335 5340 5339 5342 5350 5359 5368 5374 5384 5389 5378 5378 5388 5389 5389 5392 5386 5389 5393 5393 5410 5393 5431 5410 5422 5420 5421 5424 5418 5419 5415 5413 5413 5415 5410